Marshalltown, IA

3:57 AM CST on December 10, 2019 (GMT -0600)
Marshalltown Municipal

Weather History for KMIW - November, 2019

Change the Weather History Date:

Friday, November 15, 2019

  Actual Average Record
Temperature  
Mean Temperature 30 °F 37 °F  
Max Temperature 44 °F 46 °F 68 °F (2001)
Min Temperature 15 °F 27 °F 11 °F (2014)
Degree Days  
Heating Degree Days 35 28  
Month to date heating degree days 563 371  
Since 1 July heating degree days 1215 1004  
Cooling Degree Days 0 0  
Month to date cooling degree days 0 0  
Year to date cooling degree days 734 728  
Moisture  
Dew Point 24 °F    
Average Humidity 77    
Maximum Humidity 92    
Minimum Humidity 62    
Precipitation  
Precipitation 0.00 in 0.09 in 0.52 in (2005)
Month to date precipitation 0.13 1.50  
Sea Level Pressure  
Sea Level Pressure 30.36 in    
Wind  
Wind Speed 5 mph (SSE)    
Max Wind Speed 10 mph    
Max Gust Speed 13 mph    
Visibility 10 miles    
Events      
T = Trace of Precipitation, MM = Missing Value Source: NWS Daily Summary

Daily Weather History Graph

Daily Weather History Graph

Search for Another Location

Airport or City:

Astronomy

Nov. 15, 2019 Rise Set
Actual Time 7:01 AM CST 4:50 PM CST
Civil Twilight 6:31 AM CST 5:20 PM CST
Nautical Twilight 5:57 AM CST 5:54 PM CST
Astronomical Twilight 5:24 AM CST 6:27 PM CST
Moon 7:24 PM CST (11/15) 10:00 AM CST (11/15)
Length of Visible Light 10h 48m
Length of Day
9h 48m
Waning Gibbous, 90% of the Moon is Illuminated
Nov 15
Waning Gibbous
Nov 19
Last Quarter
Nov 26
New
Dec 4
First Quarter
Dec 11
Full

Hourly Weather History & Observations

Time (CST) Temp. Windchill Dew Point Humidity Pressure Visibility Wind Dir Wind Speed Gust Speed Precip Events Conditions
12:53 AM 18.0 °F 9.8 °F 16.0 °F 92% 30.34 in 9.0 mi WSW 5.8 mph - N/A   Clear
1:53 AM 18.0 °F 9.8 °F 16.0 °F 92% 30.35 in 10.0 mi WSW 5.8 mph - N/A   Clear
2:53 AM 19.0 °F - 16.0 °F 88% 30.35 in 10.0 mi Calm Calm - N/A   Clear
3:53 AM 19.9 °F 9.3 °F 17.1 °F 89% 30.35 in 10.0 mi SW 9.2 mph - N/A   Clear
4:53 AM 19.0 °F - 16.0 °F 88% 30.36 in 10.0 mi Calm Calm - N/A   Clear
5:53 AM 18.0 °F 12.7 °F 16.0 °F 92% 30.37 in 10.0 mi SW 3.5 mph - N/A   Clear
6:53 AM 16.0 °F 7.4 °F 14.0 °F 92% 30.38 in 10.0 mi SW 5.8 mph - N/A   Clear
7:53 AM 19.9 °F - 17.1 °F 89% 30.39 in 9.0 mi Calm Calm - N/A   Clear
8:53 AM 24.1 °F - 19.0 °F 81% 30.40 in 10.0 mi Calm Calm - N/A   Clear
9:53 AM 26.1 °F 21.9 °F 21.0 °F 81% 30.40 in 10.0 mi SSE 3.5 mph - N/A   Clear
10:53 AM 30.9 °F 27.5 °F 23.0 °F 72% 30.40 in 10.0 mi SE 3.5 mph - N/A   Clear
11:53 AM 36.0 °F 32.1 °F 27.0 °F 70% 30.38 in 10.0 mi East 4.6 mph - N/A   Clear
12:53 PM 39.9 °F 36.7 °F 28.9 °F 65% 30.36 in 10.0 mi SSE 4.6 mph - N/A   Clear
1:53 PM 43.0 °F 40.3 °F 30.0 °F 60% 30.34 in 10.0 mi SE 4.6 mph - N/A   Clear
2:53 PM 44.1 °F 40.8 °F 32.0 °F 63% 30.33 in 10.0 mi SE 5.8 mph - N/A   Clear
3:53 PM 42.1 °F 37.7 °F 33.1 °F 70% 30.33 in 10.0 mi ESE 6.9 mph - N/A   Clear
4:53 PM 36.0 °F 29.6 °F 30.9 °F 82% 30.33 in 10.0 mi ESE 8.1 mph - N/A   Clear
5:53 PM 33.1 °F 26.9 °F 28.9 °F 85% 30.33 in 10.0 mi ESE 6.9 mph - N/A   Clear
6:53 PM 32.0 °F 25.6 °F 28.9 °F 88% 30.35 in 10.0 mi ESE 6.9 mph - N/A   Clear
7:53 PM 36.0 °F 29.6 °F 30.0 °F 79% 30.34 in 10.0 mi SE 8.1 mph - N/A   Clear
8:53 PM 35.1 °F 27.9 °F 30.0 °F 82% 30.34 in 10.0 mi SE 9.2 mph - N/A   Clear
9:53 PM 34.0 °F 27.2 °F 28.9 °F 82% 30.35 in 10.0 mi SE 8.1 mph - N/A   Clear
10:53 PM 33.1 °F 25.5 °F 28.0 °F 82% 30.34 in 10.0 mi SE 9.2 mph - N/A   Clear
11:53 PM 30.0 °F 23.2 °F 27.0 °F 88% 30.34 in 10.0 mi SE 6.9 mph - N/A   Clear